[[{"header":{"parameterUnit":"m.s-1","parameterCategory":2,"la1":30.2991,"la2":30.254,"lo1":-89.0895,"lo2":-89.0444,"dy":0.0017,"dx":0.0017,"nx":28,"ny":28,"refTime":"2025-01-26T03:00:00:Z","depth":"0","parameterNumber":2,"parameterNumberName":"U-component_of_CURRENTS"},"data":[0,0,0,0,0,0,0,0,0,0,0,0,0,0,0,0,0,0,0,0,0,0,0,0,0,0,0,0,0,0,0,0,0,0,0,0,0,0,0,0,0,0,0,0,0,0,0,0,0,0,0,0,0,0,0,0,0,0,-0.4442,-0.4442,0,-0.4459,-0.4459,-0.4459,-0.4344,-0.4341,-0.4338,-0.4335,-0.4214,-0.4213,-0.4213,0,0,0,0,0,0,0,0,0,0,0,0,0,-0.4302,-0.4305,-0.4442,-0.4442,-0.4443,-0.4459,-0.4459,-0.4459,-0.4344,-0.434,-0.4337,-0.4333,-0.4214,-0.4213,-0.4213,0,0,0,0,0,0,0,0,0,0,0,0,0,-0.4343,-0.4306,-0.4442,-0.4389,-0.4384,-0.4459,-0.4459,-0.4459,-0.4345,-0.434,-0.4336,-0.4332,-0.4214,-0.4213,-0.4213,-0.4301,0,0,-0.4211,-0.4211,0,0,0,0,0,0,0,0,-0.4341,-0.4348,-0.4396,-0.4393,-0.4388,-0.4397,-0.4366,-0.44,-0.4346,-0.4358,-0.4335,-0.4329,-0.4267,-0.4262,-0.4274,-0.4295,-0.429,-0.4211,-0.4211,-0.421,-0.421,0,0,0,0,0,0,0,-0.4338,-0.4347,-0.4446,-0.4397,-0.4392,-0.4362,-0.4363,-0.4372,-0.4333,-0.4356,-0.4348,-0.4356,-0.4263,-0.4275,-0.427,-0.4288,-0.4211,-0.4211,-0.421,-0.421,-0.424,-0.4241,0,0,0,0,0,0,-0.4348,-0.4345,-0.4446,-0.4447,-0.4355,-0.4369,-0.4369,-0.4397,-0.4336,-0.4324,-0.436,-0.435,-0.4278,-0.4271,-0.4265,-0.4269,-0.421,-0.421,-0.421,-0.4239,-0.424,-0.4242,0,0,0,0,0,0,-0.4345,-0.4357,-0.4445,-0.4396,-0.4405,-0.4376,-0.4408,-0.4399,-0.4387,-0.4341,-0.4324,-0.4352,-0.4274,-0.4266,-0.427,-0.4267,-0.421,-0.4209,-0.4238,-0.424,-0.4241,-0.434,0,0,0,0,0,0,-0.4341,-0.4357,-0.4373,-0.4398,-0.4409,-0.4512,-0.4412,-0.4403,-0.4401,-0.4388,-0.4331,-0.4316,-0.427,-0.4272,-0.427,-0.4265,-0.4209,-0.4236,-0.4239,-0.4241,-0.4335,-0.4344,-0.4353,0,0,0,0,0,-0.4337,-0.439,-0.4374,-0.4386,-0.4435,-0.4516,-0.4521,-0.448,-0.4405,-0.4442,-0.438,-0.4316,-0.4281,-0.4275,-0.4271,-0.4266,-0.4235,-0.4238,-0.424,-0.4331,-0.4343,-0.4352,0,0,0,0,0,0,-0.4343,-0.4385,-0.4367,-0.443,-0.4477,-0.4497,-0.4515,-0.4489,-0.4474,-0.4439,-0.4362,-0.4348,-0.4347,-0.4308,-0.4301,-0.4279,-0.4236,-0.4239,-0.4306,-0.4317,-0.4325,-0.4285,-0.4208,0,0,0,0,0,-0.4356,-0.4402,-0.4444,-0.4498,-0.4514,-0.4512,-0.4529,-0.4521,-0.4515,-0.45,-0.446,-0.4402,-0.4367,-0.4341,-0.4329,-0.4339,-0.4228,-0.4323,-0.4332,-0.4339,-0.4305,-0.4143,-0.4132,-0.425,-0.425,-0.425,0,0,-0.4384,-0.4403,-0.4434,-0.4501,-0.4513,-0.454,-0.451,-0.4561,-0.4555,-0.4494,-0.447,-0.4456,-0.4384,-0.4385,-0.4376,-0.434,-0.4258,-0.4343,-0.435,-0.4309,-0.4144,-0.4131,-0.412,-0.4252,-0.4252,-0.4251,0,0,-0.4429,-0.4468,-0.4496,-0.4535,-0.4573,-0.4584,-0.4599,-0.4633,-0.4614,-0.4638,-0.456,-0.4545,-0.4516,-0.4457,-0.4415,-0.4469,-0.4327,-0.4461,-0.4454,-0.43,-0.4287,-0.4274,-0.4153,-0.4128,-0.4445,-0.4445,-0.4445,0,-0.4438,-0.446,-0.4526,-0.4545,-0.4539,-0.4593,-0.4591,-0.4626,-0.4655,-0.461,-0.4635,-0.4538,-0.4534,-0.4435,-0.4475,-0.4484,-0.4373,-0.4422,-0.4306,-0.4291,-0.4276,-0.4154,-0.4126,-0.445,-0.4449,-0.4449,-0.4448,0,-0.4481,-0.4486,-0.4512,-0.4525,-0.4564,-0.4593,-0.4634,-0.465,-0.4634,-0.4632,-0.4584,-0.46,-0.4508,-0.4534,-0.4533,-0.4425,-0.4377,-0.4352,-0.4271,-0.4269,-0.4143,-0.4111,-0.4457,-0.4455,-0.4454,-0.4453,0,0,-0.4461,-0.4519,-0.451,-0.4467,-0.4531,-0.4552,-0.4562,-0.4543,-0.4479,-0.4551,-0.4438,-0.4482,-0.4484,-0.4439,-0.4438,-0.4351,-0.4231,-0.4322,-0.4312,-0.4189,-0.3883,-0.383,-0.379,-0.4164,-0.4159,-0.4154,-0.3849,0,-0.4419,-0.4415,-0.4465,-0.4428,-0.4396,-0.4437,-0.4431,-0.444,-0.4442,-0.439,-0.4388,-0.4342,-0.4445,-0.4412,-0.435,-0.4259,-0.4145,-0.4316,-0.3912,-0.3901,-0.3841,-0.3751,-0.3636,-0.335,-0.3817,-0.3812,-0.3808,0,-0.436,-0.4351,-0.4318,-0.4274,-0.4266,-0.4284,-0.42,-0.4221,-0.4196,-0.4189,-0.4156,-0.4172,-0.4116,-0.4194,-0.3994,-0.4089,-0.3988,-0.3921,-0.3906,-0.3784,-0.3786,-0.3421,-0.3274,-0.3259,-0.3758,-0.3762,-0.3765,0,-0.4197,-0.42,-0.4147,-0.415,-0.417,-0.4132,-0.414,-0.4134,-0.4093,-0.4064,-0.4004,-0.3963,-0.3904,-0.3796,-0.3777,-0.3834,-0.3521,-0.3558,-0.3394,-0.339,-0.3174,-0.316,-0.294,-0.3331,-0.3332,-0.3333,-0.3334,0,-0.4059,-0.3994,-0.4073,-0.4039,-0.395,-0.4021,-0.3926,-0.3933,-0.3907,-0.382,-0.3902,-0.3807,-0.3793,-0.367,-0.3647,-0.3434,-0.3397,-0.3341,-0.3278,-0.3215,-0.3209,-0.3092,-0.3151,-0.3321,-0.3324,-0.3326,-0.3328,0,-0.3852,-0.392,-0.3846,-0.3873,-0.3872,-0.3817,-0.3805,-0.3731,-0.3756,-0.363,-0.3611,-0.3607,-0.3471,-0.3444,-0.3251,-0.322,-0.2992,-0.2981,-0.2948,-0.2886,-0.274,-0.2811,-0.2487,-0.2417,-0.2703,-0.2699,-0.2696,0,-0.373,-0.368,-0.3712,-0.3678,-0.3688,-0.3638,-0.3588,-0.3633,-0.3561,-0.35,-0.34,-0.3295,-0.3196,-0.2955,-0.2878,-0.2724,-0.2781,-0.2519,-0.2617,-0.2662,-0.2692,-0.2766,-0.2738,-0.2377,-0.2372,-0.2367,-0.2364,0,-0.3458,-0.3507,-0.3481,-0.3442,-0.3404,-0.333,-0.3279,-0.3213,-0.3233,-0.3163,-0.3051,-0.299,-0.2811,-0.2642,-0.2497,-0.2416,-0.2478,-0.2422,-0.2421,-0.2363,-0.2462,-0.2388,-0.2704,-0.2324,-0.2328,-0.2331,-0.2333,-0.2335,-0.3247,-0.3196,-0.3205,-0.3149,-0.3108,-0.3006,-0.2914,-0.2872,-0.277,-0.2659,-0.2712,-0.2597,-0.2486,-0.2286,-0.2195,-0.2029,-0.214,-0.1982,-0.2044,-0.21,-0.2084,-0.2351,-0.1952,-0.1953,-0.1955,-0.1956,-0.1957,0,-0.2966,-0.2947,-0.2888,-0.2835,-0.2732,-0.2788,-0.2672,-0.2576,-0.2437,-0.2392,-0.2315,-0.2211,-0.2031,-0.1968,-0.1807,-0.1701,-0.1686,-0.1671,-0.1738,-0.1711,-0.1852,-0.1895,-0.1521,-0.1521,-0.1521,-0.1521,-0.1521,-0.1521,-0.2801,-0.2694,-0.2701,-0.2483,-0.2447,-0.2286,-0.2215,-0.2103,-0.2043,-0.1892,-0.1862,-0.1864,-0.1825,-0.1861,-0.1681,-0.1579,-0.1566,-0.1501,-0.1553,-0.1692,-0.1727,-0.1762,-0.1813,-0.1427,-0.1428,-0.1341,-0.1341,-0.134]},{"header":{"parameterUnit":"m.s-1","parameterCategory":2,"la1":30.2991,"la2":30.254,"lo1":-89.0895,"lo2":-89.0444,"dy":0.0017,"dx":0.0017,"nx":28,"ny":28,"refTime":"2025-01-26T03:00:00:Z","depth":"0","parameterNumber":3,"parameterNumberName":"V-component_of_CURRENTS"},"data":[0,0,0,0,0,0,0,0,0,0,0,0,0,0,0,0,0,0,0,0,0,0,0,0,0,0,0,0,0,0,0,0,0,0,0,0,0,0,0,0,0,0,0,0,0,0,0,0,0,0,0,0,0,0,0,0,0,0,0.0089,0.0092,0,0.0329,0.0332,0.0335,0.0433,0.0432,0.0432,0.0431,0.0767,0.0777,0.0786,0,0,0,0,0,0,0,0,0,0,0,0,0,-0.02,-0.0196,0.0089,0.0092,0.0095,0.0329,0.0332,0.0336,0.0433,0.0432,0.0432,0.0431,0.0764,0.0776,0.0787,0,0,0,0,0,0,0,0,0,0,0,0,0,-0.0028,-0.0194,0.0088,0.0171,0.018,0.0328,0.0332,0.0337,0.0433,0.0432,0.0431,0.0431,0.0761,0.0774,0.0789,0.0896,0,0,0.0832,0.0839,0,0,0,0,0,0,0,0,-0.0038,-0.0017,0.0156,0.0165,0.0176,0.0349,0.0354,0.0528,0.0434,0.0339,0.0431,0.043,0.0637,0.0661,0.0709,0.0912,0.0927,0.0834,0.0842,0.0848,0.0853,0,0,0,0,0,0,0,-0.005,-0.0027,0.0185,0.0159,0.0171,0.0225,0.0248,0.0387,0.0493,0.0347,0.0354,0.0379,0.0643,0.0694,0.0717,0.0932,0.0833,0.0846,0.0855,0.086,0.1113,0.1111,0,0,0,0,0,0,-0.0084,-0.0038,0.0178,0.0192,0.0063,0.023,0.0256,0.0296,0.0489,0.0517,0.038,0.0383,0.067,0.0701,0.073,0.0803,0.0848,0.0862,0.087,0.1115,0.1113,0.1111,0,0,0,0,0,0,-0.0091,-0.0067,0.0168,0.008,0.0114,0.0236,0.028,0.0301,0.0338,0.0513,0.0543,0.0392,0.0671,0.071,0.0842,0.0819,0.0868,0.0881,0.1117,0.1114,0.1112,0.0992,0,0,0,0,0,0,-0.01,-0.0071,-0.0068,0.0079,0.0118,0.0236,0.0282,0.0306,0.0355,0.0361,0.0535,0.0566,0.0673,0.0819,0.0856,0.084,0.0892,0.112,0.1116,0.1113,0.0999,0.0986,0.0975,0,0,0,0,0,-0.0111,-0.0105,-0.0069,-0.0043,0.0123,0.0236,0.0261,0.0345,0.0356,0.0373,0.0489,0.0559,0.082,0.0832,0.0875,0.0862,0.1121,0.1117,0.1113,0.1004,0.0988,0.0975,0,0,0,0,0,0,-0.0223,-0.0089,-0.0048,0.0001,0.0101,0.0251,0.0271,0.033,0.0435,0.0439,0.0586,0.0627,0.0714,0.0805,0.0813,0.0912,0.0963,0.0967,0.0865,0.0852,0.084,0.0827,0.0904,0,0,0,0,0,-0.0248,-0.021,-0.0069,-0.0032,0.0008,0.0134,0.0183,0.025,0.0367,0.0409,0.0532,0.0642,0.0734,0.0805,0.0906,0.1006,0.1034,0.1004,0.0992,0.0981,0.0993,0.1036,0.103,0.1097,0.1097,0.1097,0,0,-0.0274,-0.0203,-0.0176,-0.0055,0.0025,0.0066,0.0161,0.0234,0.0267,0.0436,0.0511,0.0618,0.0746,0.0832,0.0876,0.0911,0.0955,0.0976,0.0967,0.0985,0.1031,0.1025,0.102,0.1094,0.1095,0.1095,0,0,-0.0343,-0.0252,-0.0264,-0.0189,-0.0082,0.0012,0.002,0.0167,0.0225,0.0331,0.0426,0.0531,0.0689,0.0783,0.0844,0.0833,0.0882,0.0829,0.079,0.0831,0.0826,0.0823,0.0761,0.0753,0.0836,0.0836,0.0836,0,-0.0397,-0.0369,-0.0248,-0.0246,-0.019,-0.0033,-0.0023,0.0062,0.0232,0.0298,0.0326,0.0553,0.0663,0.0772,0.0755,0.0811,0.0803,0.084,0.0817,0.0815,0.0814,0.0752,0.0745,0.083,0.083,0.0831,0.0831,0,-0.048,-0.045,-0.0446,-0.0387,-0.0314,-0.0263,-0.0126,-0.0052,0.004,0.0153,0.0286,0.0449,0.0587,0.0611,0.0693,0.0736,0.0714,0.0786,0.0856,0.08,0.0736,0.0731,0.0821,0.0823,0.0825,0.0826,0,0,-0.0602,-0.0525,-0.0523,-0.05,-0.0372,-0.0305,-0.0253,-0.0118,-0.0068,0.009,0.016,0.0335,0.0449,0.0523,0.0634,0.0685,0.0643,0.0723,0.0728,0.0662,0.0643,0.073,0.0732,0.0711,0.0711,0.0712,0.0568,0,-0.0702,-0.0728,-0.0649,-0.063,-0.0608,-0.0447,-0.0398,-0.0255,-0.0123,-0.0016,0.017,0.0278,0.0404,0.0462,0.054,0.0631,0.0639,0.067,0.0707,0.0706,0.0796,0.0736,0.0788,0.0678,0.0564,0.0564,0.0563,0,-0.0813,-0.0799,-0.0822,-0.071,-0.0685,-0.0657,-0.0502,-0.0431,-0.0243,-0.0144,0.0018,0.0161,0.0289,0.0377,0.0511,0.0518,0.0561,0.0619,0.0616,0.0754,0.0791,0.0734,0.0674,0.0854,0.0557,0.0557,0.0558,0,-0.0935,-0.09,-0.0913,-0.0881,-0.0757,-0.0729,-0.0647,-0.047,-0.0391,-0.0232,-0.0178,0.0029,0.01,0.0227,0.0405,0.0427,0.0511,0.0555,0.0655,0.0656,0.0743,0.0754,0.0883,0.0606,0.0606,0.0607,0.0607,0,-0.1043,-0.104,-0.0977,-0.0974,-0.0948,-0.0831,-0.0771,-0.0661,-0.0528,-0.0442,-0.0253,-0.0172,0.0069,0.0188,0.0326,0.0489,0.045,0.0632,0.0651,0.0692,0.07,0.0901,0.0982,0.0601,0.0603,0.0604,0.0605,0,-0.1148,-0.1125,-0.1115,-0.1033,-0.1007,-0.098,-0.0856,-0.0804,-0.0692,-0.0603,-0.057,-0.0358,-0.0194,0.0037,0.0219,0.0374,0.0635,0.0581,0.0572,0.0598,0.0884,0.0954,0.1085,0.119,0.0626,0.0627,0.0629,0,-0.1199,-0.122,-0.1167,-0.1157,-0.1122,-0.107,-0.1024,-0.0894,-0.0841,-0.0696,-0.0672,-0.0505,-0.0324,-0.0027,0.0274,0.0502,0.0674,0.0661,0.0765,0.0908,0.0998,0.1046,0.1128,0.0756,0.0758,0.076,0.0762,0,-0.1257,-0.1251,-0.1233,-0.1228,-0.1206,-0.1165,-0.1108,-0.1099,-0.0955,-0.0888,-0.077,-0.0633,-0.0306,0.0044,0.0381,0.054,0.0826,0.0709,0.0885,0.1145,0.1179,0.1285,0.0761,0.0779,0.0777,0.0776,0.0775,0.0774,-0.1274,-0.128,-0.1269,-0.1254,-0.1247,-0.1241,-0.119,-0.1155,-0.1084,-0.0929,-0.0836,-0.0569,-0.0111,0.0407,0.0587,0.1006,0.0968,0.1141,0.12,0.1225,0.1409,0.0896,0.0959,0.0959,0.0958,0.0958,0.0957,0,-0.1239,-0.126,-0.1275,-0.126,-0.1263,-0.1246,-0.1208,-0.1123,-0.1046,-0.0902,-0.0738,-0.0202,0.026,0.0697,0.1247,0.1484,0.1539,0.1604,0.1685,0.1738,0.1298,0.1398,0.1531,0.1531,0.1531,0.1531,0.1531,0.153,-0.1214,-0.1215,-0.1232,-0.1247,-0.1249,-0.1173,-0.1134,-0.1021,-0.0874,-0.0537,-0.0226,-0.0,0.0572,0.1377,0.189,0.1943,0.2154,0.2138,0.2243,0.1952,0.1914,0.1877,0.1994,0.225,0.2251,0.2678,0.2682,0.2685]}],[{"header":{"parameterUnit":"m.s-1","parameterCategory":2,"la1":30.2991,"la2":30.254,"lo1":-89.0895,"lo2":-89.0444,"dy":0.0017,"dx":0.0017,"nx":28,"ny":28,"refTime":"2025-01-26T03:00:00:Z","depth":"2","parameterNumber":2,"parameterNumberName":"U-component_of_CURRENTS"},"data":[0,0,0,0,0,0,0,0,0,0,0,0,0,0,0,0,0,0,0,0,0,0,0,0,0,0,0,0,0,0,0,0,0,0,0,0,0,0,0,0,0,0,0,0,0,0,0,0,0,0,0,0,0,0,0,0,0,0,-0.2848,-0.2849,0,-0.297,-0.2972,-0.2974,-0.3067,-0.3067,-0.3067,-0.3068,-0.3123,-0.3124,-0.3125,0,0,0,0,0,0,0,0,0,0,0,0,0,-0.2772,-0.2773,-0.2848,-0.2849,-0.285,-0.2969,-0.2972,-0.2974,-0.3067,-0.3067,-0.3067,-0.3068,-0.3122,-0.3124,-0.3125,0,0,0,0,0,0,0,0,0,0,0,0,0,-0.2846,-0.2773,-0.2848,-0.2906,-0.2912,-0.2969,-0.2972,-0.2975,-0.3067,-0.3067,-0.3068,-0.3068,-0.3122,-0.3123,-0.3125,-0.3129,0,0,-0.3131,-0.3132,0,0,0,0,0,0,0,0,-0.2842,-0.285,-0.2896,-0.2902,-0.2908,-0.2997,-0.2965,-0.3021,-0.3067,-0.3015,-0.3068,-0.3068,-0.307,-0.3076,-0.3109,-0.3132,-0.3134,-0.3131,-0.3132,-0.3133,-0.3134,0,0,0,0,0,0,0,-0.2837,-0.2846,-0.2903,-0.2897,-0.2904,-0.295,-0.2962,-0.2977,-0.3043,-0.302,-0.3025,-0.3027,-0.3074,-0.3107,-0.311,-0.3135,-0.3131,-0.3133,-0.3134,-0.3135,-0.3319,-0.3323,0,0,0,0,0,0,-0.2804,-0.284,-0.2899,-0.2906,-0.2868,-0.2951,-0.2964,-0.2974,-0.3044,-0.3054,-0.3027,-0.3031,-0.3104,-0.3108,-0.3112,-0.3192,-0.3133,-0.3135,-0.3136,-0.3315,-0.332,-0.3324,0,0,0,0,0,0,-0.2802,-0.2808,-0.2894,-0.287,-0.2883,-0.295,-0.2962,-0.2976,-0.3036,-0.3049,-0.3059,-0.3074,-0.3104,-0.311,-0.3153,-0.3191,-0.3136,-0.3137,-0.3311,-0.3317,-0.3322,-0.3304,0,0,0,0,0,0,-0.2799,-0.2807,-0.2825,-0.2868,-0.2883,-0.2972,-0.2962,-0.2978,-0.3032,-0.304,-0.3092,-0.3097,-0.3105,-0.3151,-0.3155,-0.3193,-0.3139,-0.3306,-0.3313,-0.332,-0.33,-0.3309,-0.3316,0,0,0,0,0,-0.2796,-0.2834,-0.2825,-0.2833,-0.2899,-0.2974,-0.299,-0.3041,-0.3034,-0.3091,-0.3104,-0.3097,-0.3201,-0.3154,-0.3159,-0.3198,-0.3302,-0.3311,-0.3319,-0.3297,-0.3307,-0.3316,0,0,0,0,0,0,-0.2811,-0.2847,-0.2839,-0.2884,-0.2934,-0.2988,-0.3043,-0.3054,-0.3112,-0.3114,-0.3116,-0.3124,-0.319,-0.3206,-0.3154,-0.3285,-0.3263,-0.3272,-0.3244,-0.3254,-0.3262,-0.3194,-0.314,0,0,0,0,0,-0.2814,-0.2832,-0.2887,-0.2905,-0.2952,-0.2993,-0.303,-0.3059,-0.3099,-0.3129,-0.3155,-0.3192,-0.3228,-0.3246,-0.3295,-0.3336,-0.3277,-0.3383,-0.339,-0.3396,-0.3353,-0.3261,-0.3252,-0.3352,-0.3352,-0.3352,0,0,-0.2806,-0.2828,-0.2835,-0.2906,-0.2953,-0.3025,-0.3023,-0.3093,-0.3123,-0.3119,-0.3187,-0.322,-0.3251,-0.3315,-0.3347,-0.3327,-0.3357,-0.3407,-0.3411,-0.3363,-0.3268,-0.3256,-0.3246,-0.3358,-0.3357,-0.3356,0,0,-0.2818,-0.2848,-0.2891,-0.2957,-0.3029,-0.3057,-0.3081,-0.316,-0.3188,-0.3247,-0.3249,-0.3311,-0.337,-0.3402,-0.3417,-0.3505,-0.3406,-0.3526,-0.3489,-0.3401,-0.3388,-0.3376,-0.3337,-0.3321,-0.352,-0.352,-0.352,0,-0.2825,-0.2856,-0.2916,-0.3,-0.303,-0.3074,-0.3133,-0.3182,-0.3249,-0.3229,-0.3283,-0.3321,-0.3422,-0.3396,-0.3471,-0.352,-0.3422,-0.3434,-0.3397,-0.3384,-0.3372,-0.3334,-0.3317,-0.352,-0.352,-0.352,-0.352,0,-0.2877,-0.2921,-0.2965,-0.3052,-0.3115,-0.3168,-0.3236,-0.3273,-0.3295,-0.3303,-0.3305,-0.3392,-0.3402,-0.3473,-0.3513,-0.347,-0.3418,-0.3412,-0.334,-0.3358,-0.3322,-0.3304,-0.352,-0.352,-0.352,-0.352,0,0,-0.2837,-0.2969,-0.2981,-0.3008,-0.3135,-0.3173,-0.3229,-0.3247,-0.322,-0.3286,-0.323,-0.3365,-0.3355,-0.3376,-0.3406,-0.3361,-0.3313,-0.334,-0.3335,-0.3244,-0.3078,-0.3011,-0.2985,-0.322,-0.3216,-0.3213,-0.3102,0,-0.2848,-0.2953,-0.3016,-0.3082,-0.3147,-0.3193,-0.3219,-0.324,-0.3257,-0.3238,-0.3245,-0.3256,-0.3324,-0.333,-0.329,-0.3322,-0.3251,-0.3342,-0.3123,-0.3119,-0.3006,-0.2958,-0.2777,-0.2655,-0.3084,-0.3081,-0.3079,0,-0.2891,-0.2931,-0.3004,-0.3048,-0.3079,-0.3121,-0.3105,-0.3143,-0.3127,-0.3126,-0.3076,-0.309,-0.3095,-0.3149,-0.3072,-0.3085,-0.3075,-0.3068,-0.3063,-0.2971,-0.3014,-0.2705,-0.2605,-0.3047,-0.305,-0.3052,-0.3054,0,-0.2806,-0.292,-0.2934,-0.2974,-0.3053,-0.3049,-0.3079,-0.3095,-0.3074,-0.3048,-0.3026,-0.2958,-0.2983,-0.289,-0.2979,-0.2982,-0.2849,-0.288,-0.2769,-0.2768,-0.2563,-0.2548,-0.274,-0.274,-0.274,-0.274,-0.2741,0,-0.2781,-0.2794,-0.2895,-0.2902,-0.2873,-0.2993,-0.2946,-0.2956,-0.2958,-0.2916,-0.2957,-0.2897,-0.2902,-0.2862,-0.2874,-0.2772,-0.2771,-0.2717,-0.27,-0.2568,-0.2555,-0.2855,-0.287,-0.2736,-0.2737,-0.2738,-0.2739,0,-0.2676,-0.2759,-0.2763,-0.2822,-0.284,-0.2825,-0.2865,-0.2833,-0.2873,-0.2822,-0.2814,-0.2839,-0.28,-0.2781,-0.2716,-0.2677,-0.2592,-0.2544,-0.2423,-0.2391,-0.2592,-0.2609,-0.2377,-0.2373,-0.2369,-0.2366,-0.2364,0,-0.2614,-0.262,-0.2664,-0.265,-0.2668,-0.2681,-0.2679,-0.2749,-0.2739,-0.2775,-0.2737,-0.2724,-0.2665,-0.2552,-0.2476,-0.2371,-0.2479,-0.2146,-0.2148,-0.253,-0.2538,-0.2561,-0.2582,-0.1907,-0.1901,-0.1896,-0.1892,0,-0.245,-0.2479,-0.247,-0.2459,-0.2462,-0.2454,-0.2492,-0.2469,-0.2561,-0.2543,-0.2538,-0.2509,-0.2435,-0.2252,-0.2145,-0.2074,-0.2153,-0.2042,-0.2395,-0.2042,-0.208,-0.2093,-0.2129,-0.1849,-0.1853,-0.1856,-0.1859,-0.186,-0.2298,-0.2247,-0.2261,-0.2231,-0.2248,-0.2241,-0.2177,-0.2246,-0.222,-0.2194,-0.229,-0.2185,-0.2166,-0.1893,-0.1786,-0.1705,-0.1858,-0.1774,-0.1791,-0.1812,-0.1792,-0.1823,-0.1542,-0.1545,-0.1547,-0.1549,-0.155,0,-0.2087,-0.2072,-0.2034,-0.2007,-0.1965,-0.2045,-0.2041,-0.1965,-0.1908,-0.1933,-0.1899,-0.1684,-0.1557,-0.1546,-0.1347,-0.1303,-0.1309,-0.1251,-0.1265,-0.1308,-0.1347,-0.1306,-0.0925,-0.0923,-0.0922,-0.092,0,0,-0.1978,-0.1875,-0.1864,-0.1741,-0.1735,-0.162,-0.1584,-0.1523,-0.1494,-0.1403,-0.1353,-0.1455,-0.1483,-0.1204,-0.1139,-0.0995,-0.114,-0.094,-0.1441,-0.1499,-0.1535,-0.1644,-0.1628,0,0,0,0,0]},{"header":{"parameterUnit":"m.s-1","parameterCategory":2,"la1":30.2991,"la2":30.254,"lo1":-89.0895,"lo2":-89.0444,"dy":0.0017,"dx":0.0017,"nx":28,"ny":28,"refTime":"2025-01-26T03:00:00:Z","depth":"2","parameterNumber":3,"parameterNumberName":"V-component_of_CURRENTS"},"data":[0,0,0,0,0,0,0,0,0,0,0,0,0,0,0,0,0,0,0,0,0,0,0,0,0,0,0,0,0,0,0,0,0,0,0,0,0,0,0,0,0,0,0,0,0,0,0,0,0,0,0,0,0,0,0,0,0,0,-0.0716,-0.0716,0,-0.0625,-0.0624,-0.0622,-0.0506,-0.0505,-0.0504,-0.0503,-0.0386,-0.0384,-0.0381,0,0,0,0,0,0,0,0,0,0,0,0,0,-0.0704,-0.0704,-0.0716,-0.0716,-0.0716,-0.0626,-0.0624,-0.0621,-0.0506,-0.0505,-0.0504,-0.0503,-0.0387,-0.0384,-0.0381,0,0,0,0,0,0,0,0,0,0,0,0,0,-0.0661,-0.0704,-0.0716,-0.0655,-0.065,-0.0626,-0.0623,-0.0621,-0.0506,-0.0505,-0.0504,-0.0502,-0.0387,-0.0384,-0.0381,-0.0386,0,0,-0.037,-0.0369,0,0,0,0,0,0,0,0,-0.0664,-0.066,-0.0664,-0.066,-0.0653,-0.0585,-0.0577,-0.0544,-0.0507,-0.0549,-0.0503,-0.0502,-0.0458,-0.0449,-0.042,-0.038,-0.0375,-0.037,-0.0368,-0.0366,-0.0365,0,0,0,0,0,0,0,-0.0667,-0.0663,-0.0669,-0.0665,-0.0658,-0.0604,-0.0596,-0.0569,-0.0503,-0.0546,-0.054,-0.0547,-0.0453,-0.0423,-0.0416,-0.0373,-0.037,-0.0367,-0.0365,-0.0363,-0.02,-0.0198,0,0,0,0,0,0,-0.0706,-0.0667,-0.0672,-0.0668,-0.0667,-0.0607,-0.0597,-0.06,-0.0504,-0.0492,-0.0548,-0.0542,-0.043,-0.042,-0.0412,-0.0383,-0.0366,-0.0363,-0.0361,-0.0202,-0.0199,-0.0197,0,0,0,0,0,0,-0.0706,-0.0707,-0.0676,-0.0673,-0.0667,-0.061,-0.0613,-0.0599,-0.0561,-0.0509,-0.0493,-0.0526,-0.0428,-0.0417,-0.04,-0.0379,-0.0361,-0.0358,-0.0205,-0.0201,-0.0198,-0.0345,0,0,0,0,0,0,-0.0706,-0.0707,-0.0715,-0.0676,-0.0669,-0.066,-0.0615,-0.0598,-0.0574,-0.0564,-0.0485,-0.0472,-0.0426,-0.0406,-0.0397,-0.0374,-0.0356,-0.0208,-0.0203,-0.0199,-0.0343,-0.0347,-0.035,0,0,0,0,0,-0.0705,-0.0722,-0.0716,-0.0717,-0.0684,-0.0661,-0.065,-0.0598,-0.0574,-0.0557,-0.0522,-0.0474,-0.0368,-0.0405,-0.0394,-0.0369,-0.021,-0.0204,-0.02,-0.0341,-0.0346,-0.035,0,0,0,0,0,0,-0.0717,-0.0712,-0.0704,-0.0717,-0.0695,-0.0645,-0.0634,-0.0605,-0.056,-0.0556,-0.0493,-0.048,-0.0429,-0.0381,-0.0421,-0.0294,-0.0261,-0.0254,-0.0372,-0.0376,-0.038,-0.0351,-0.0353,0,0,0,0,0,-0.0732,-0.0753,-0.0724,-0.0744,-0.0727,-0.0682,-0.0667,-0.0639,-0.0605,-0.0581,-0.0521,-0.0453,-0.0398,-0.0382,-0.0309,-0.0293,-0.0226,-0.0245,-0.0249,-0.0253,-0.0213,-0.0154,-0.0151,-0.018,-0.018,-0.018,0,0,-0.0749,-0.0753,-0.0764,-0.0751,-0.0723,-0.0705,-0.0665,-0.0651,-0.0632,-0.0581,-0.0524,-0.0467,-0.0389,-0.0344,-0.0315,-0.0313,-0.0207,-0.0247,-0.0253,-0.0209,-0.0149,-0.0147,-0.0145,-0.0177,-0.0177,-0.0178,0,0,-0.0795,-0.0787,-0.0807,-0.0783,-0.0766,-0.0736,-0.0737,-0.0678,-0.0636,-0.0609,-0.0543,-0.0471,-0.0408,-0.0328,-0.029,-0.0265,-0.0217,-0.0248,-0.0274,-0.0221,-0.0219,-0.0217,-0.0143,-0.0133,-0.0269,-0.0269,-0.027,0,-0.081,-0.0832,-0.0808,-0.0805,-0.079,-0.0752,-0.0744,-0.0705,-0.065,-0.0611,-0.0599,-0.0459,-0.0374,-0.0324,-0.0293,-0.027,-0.0253,-0.029,-0.0233,-0.0229,-0.0224,-0.0148,-0.0136,-0.0276,-0.0275,-0.0274,-0.0274,0,-0.0854,-0.0861,-0.0866,-0.0854,-0.0829,-0.0825,-0.0771,-0.0734,-0.069,-0.0635,-0.0561,-0.0481,-0.038,-0.0351,-0.0317,-0.0243,-0.0245,-0.0246,-0.0246,-0.0232,-0.0151,-0.0135,-0.0285,-0.0283,-0.0281,-0.0279,0,0,-0.0897,-0.0898,-0.0896,-0.0891,-0.0851,-0.0835,-0.0801,-0.0741,-0.0705,-0.0646,-0.0587,-0.0472,-0.0413,-0.0358,-0.0318,-0.0278,-0.0206,-0.0267,-0.0261,-0.0232,-0.0109,-0.0096,-0.0076,-0.026,-0.0258,-0.0256,-0.0075,0,-0.0929,-0.0955,-0.0933,-0.0931,-0.0923,-0.0866,-0.0833,-0.0774,-0.071,-0.0636,-0.0556,-0.0475,-0.0432,-0.0401,-0.0349,-0.0226,-0.017,-0.0254,-0.0087,-0.0078,-0.0104,-0.0058,-0.008,0.0079,-0.0059,-0.0056,-0.0054,0,-0.0961,-0.0974,-0.099,-0.0962,-0.0946,-0.0936,-0.0863,-0.0827,-0.0721,-0.0668,-0.0597,-0.0521,-0.0403,-0.0389,-0.0204,-0.0291,-0.0177,-0.011,-0.0103,-0.0015,-0.0034,0.0054,0.0114,-0.0026,-0.0029,-0.0031,-0.0032,0,-0.1002,-0.1001,-0.1024,-0.1012,-0.0976,-0.0957,-0.0926,-0.0832,-0.0786,-0.0683,-0.0638,-0.0523,-0.0444,-0.0329,-0.0141,-0.0181,0.0034,0.0014,0.0129,0.0131,0.0201,0.0205,0.0162,0.0162,0.0161,0.0161,0.016,0,-0.1039,-0.1046,-0.1049,-0.1053,-0.105,-0.0999,-0.0965,-0.0913,-0.0829,-0.077,-0.0657,-0.0608,-0.0434,-0.0294,-0.0148,0.0049,0.005,0.0169,0.0187,0.015,0.0148,0.0132,0.0126,0.0168,0.0166,0.0165,0.0164,0,-0.1071,-0.1085,-0.11,-0.1082,-0.1077,-0.1067,-0.1009,-0.0976,-0.0897,-0.0827,-0.0796,-0.0636,-0.0451,-0.0279,-0.0046,0.0065,0.024,0.0307,0.0263,0.0274,0.0306,0.0291,0.0477,0.0479,0.0481,0.0483,0.0484,0,-0.1093,-0.1112,-0.1126,-0.1138,-0.1133,-0.1114,-0.1099,-0.1025,-0.0986,-0.0851,-0.0822,-0.0632,-0.0487,-0.015,0.0073,0.0332,0.0312,0.0454,0.0416,0.0344,0.0343,0.0325,0.0308,0.0456,0.0457,0.0457,0.0458,0,-0.1109,-0.1123,-0.1135,-0.1172,-0.1179,-0.1171,-0.1144,-0.113,-0.1034,-0.0962,-0.0836,-0.071,-0.0385,-0.0107,0.0212,0.0352,0.0407,0.0478,0.0436,0.0358,0.0332,0.0327,0.0311,0.0465,0.0464,0.0464,0.0463,0.0463,-0.111,-0.1131,-0.116,-0.1187,-0.1208,-0.1218,-0.1208,-0.1162,-0.1101,-0.0971,-0.0857,-0.0639,-0.0381,0.0082,0.0306,0.0515,0.0504,0.0559,0.0554,0.0548,0.0492,0.0468,0.0619,0.0619,0.0619,0.0619,0.0619,0,-0.1097,-0.1129,-0.1164,-0.1201,-0.1234,-0.1236,-0.1226,-0.1194,-0.1126,-0.0962,-0.0811,-0.0514,-0.0185,0.0084,0.0423,0.0615,0.0595,0.0645,0.0579,0.0572,0.0565,0.0506,0.064,0.064,0.0641,0.0641,0,0,-0.1091,-0.1122,-0.1148,-0.1208,-0.1242,-0.1269,-0.1269,-0.1207,-0.109,-0.0921,-0.0739,-0.0496,-0.0171,0.0071,0.0314,0.0491,0.0482,0.0509,0.0473,0.0361,0.0352,0.0498,0.0397,0,0,0,0,0]}],[{"header":{"parameterUnit":"m.s-1","parameterCategory":2,"la1":30.2991,"la2":30.254,"lo1":-89.0895,"lo2":-89.0444,"dy":0.0017,"dx":0.0017,"nx":28,"ny":28,"refTime":"2025-01-26T03:00:00:Z","depth":"4","parameterNumber":2,"parameterNumberName":"U-component_of_CURRENTS"},"data":[0,0,0,0,0,0,0,0,0,0,0,0,0,0,0,0,0,0,0,0,0,0,0,0,0,0,0,0,0,0,0,0,0,0,0,0,0,0,0,0,0,0,0,0,0,0,0,0,0,0,0,0,0,0,0,0,0,0,-0.1651,-0.1651,0,-0.167,-0.167,-0.167,-0.1726,-0.1727,-0.1729,-0.173,-0.1807,-0.1808,-0.1809,0,0,0,0,0,0,0,0,0,0,0,0,0,-0.162,-0.1621,-0.1651,-0.1651,-0.1652,-0.167,-0.167,-0.167,-0.1726,-0.1727,-0.1729,-0.173,-0.1807,-0.1808,-0.1809,0,0,0,0,0,0,0,0,0,0,0,0,0,-0.1636,-0.1621,-0.1651,-0.1681,-0.1684,-0.167,-0.167,-0.1671,-0.1726,-0.1728,-0.1729,-0.1731,-0.1806,-0.1808,-0.1809,-0.1782,0,0,-0.1813,-0.1814,0,0,0,0,0,0,0,0,-0.1635,-0.1637,-0.1677,-0.1679,-0.1683,-0.1698,-0.1688,-0.1711,-0.1725,-0.171,-0.173,-0.1732,-0.1774,-0.1779,-0.1777,-0.1785,-0.1788,-0.1814,-0.1814,-0.1815,-0.1815,0,0,0,0,0,0,0,-0.1634,-0.1637,-0.1659,-0.1677,-0.168,-0.1679,-0.1684,-0.1692,-0.1733,-0.1712,-0.1716,-0.1717,-0.1777,-0.1776,-0.178,-0.179,-0.1814,-0.1815,-0.1816,-0.1816,-0.1878,-0.1879,0,0,0,0,0,0,-0.1632,-0.1636,-0.1658,-0.1659,-0.1663,-0.1679,-0.1684,-0.1691,-0.1732,-0.1739,-0.1715,-0.1719,-0.1773,-0.1778,-0.1783,-0.1834,-0.1815,-0.1816,-0.1817,-0.1877,-0.1878,-0.1879,0,0,0,0,0,0,-0.1631,-0.1634,-0.1657,-0.1647,-0.1651,-0.1678,-0.1685,-0.169,-0.1718,-0.1734,-0.1743,-0.1741,-0.1774,-0.1781,-0.1817,-0.1834,-0.1817,-0.1818,-0.1876,-0.1877,-0.1878,-0.1884,0,0,0,0,0,0,-0.163,-0.1634,-0.1648,-0.1647,-0.1651,-0.1666,-0.1683,-0.1689,-0.1714,-0.1721,-0.1758,-0.1766,-0.1776,-0.1815,-0.1818,-0.1836,-0.1819,-0.1875,-0.1877,-0.1878,-0.1883,-0.1885,-0.1887,0,0,0,0,0,-0.1629,-0.1634,-0.1648,-0.1651,-0.1667,-0.1666,-0.1668,-0.1693,-0.1714,-0.1725,-0.1756,-0.1766,-0.1827,-0.1816,-0.182,-0.1839,-0.1874,-0.1876,-0.1878,-0.1882,-0.1885,-0.1887,0,0,0,0,0,0,-0.1628,-0.164,-0.1656,-0.1666,-0.1675,-0.1676,-0.1689,-0.1702,-0.1733,-0.1753,-0.1771,-0.1779,-0.1822,-0.1826,-0.1814,-0.1862,-0.1854,-0.1857,-0.1856,-0.1859,-0.1861,-0.1858,-0.182,0,0,0,0,0,-0.1633,-0.1643,-0.1652,-0.1662,-0.1671,-0.1684,-0.1692,-0.171,-0.1729,-0.1745,-0.1777,-0.1807,-0.1824,-0.184,-0.1863,-0.188,-0.1891,-0.1897,-0.1899,-0.1901,-0.1902,-0.1938,-0.1943,-0.1885,-0.1885,-0.1885,0,0,-0.1631,-0.1642,-0.1647,-0.1663,-0.1675,-0.1698,-0.1695,-0.1714,-0.1741,-0.1748,-0.1808,-0.1821,-0.1833,-0.1862,-0.188,-0.1872,-0.1923,-0.1903,-0.1904,-0.1905,-0.194,-0.1946,-0.1951,-0.1886,-0.1886,-0.1886,0,0,-0.1633,-0.1649,-0.1663,-0.1676,-0.1701,-0.1714,-0.1726,-0.1751,-0.1773,-0.1819,-0.1828,-0.1845,-0.1897,-0.1889,-0.1893,-0.1917,-0.1938,-0.1937,-0.1941,-0.1975,-0.198,-0.1984,-0.2001,-0.2007,-0.1933,-0.1933,-0.1933,0,-0.164,-0.1655,-0.1665,-0.1688,-0.1702,-0.1728,-0.1751,-0.1773,-0.1812,-0.1827,-0.1854,-0.1907,-0.1906,-0.1911,-0.1915,-0.192,-0.1947,-0.1926,-0.1977,-0.1982,-0.1987,-0.2003,-0.2009,-0.1933,-0.1933,-0.1933,-0.1933,0,-0.1648,-0.1673,-0.1681,-0.1726,-0.1745,-0.1762,-0.1796,-0.1831,-0.1874,-0.1896,-0.1938,-0.194,-0.1968,-0.1964,-0.1945,-0.1965,-0.1976,-0.198,-0.1968,-0.1993,-0.2008,-0.2015,-0.1934,-0.1934,-0.1933,-0.1933,0,0,-0.1635,-0.1679,-0.1689,-0.1707,-0.1764,-0.1772,-0.1828,-0.1864,-0.1904,-0.1953,-0.1997,-0.1994,-0.2003,-0.2004,-0.1982,-0.199,-0.2021,-0.1997,-0.1998,-0.2008,-0.2102,-0.1927,-0.1918,-0.2049,-0.2051,-0.2052,-0.2097,0,-0.1643,-0.1679,-0.1707,-0.1749,-0.1767,-0.1809,-0.1853,-0.1896,-0.1951,-0.2011,-0.201,-0.2054,-0.2017,-0.2032,-0.2034,-0.2032,-0.2041,-0.2008,-0.2081,-0.2082,-0.192,-0.192,-0.2056,-0.2102,-0.2103,-0.2104,-0.2105,0,-0.1648,-0.1667,-0.1705,-0.1747,-0.1761,-0.1803,-0.1871,-0.1911,-0.1991,-0.2036,-0.2082,-0.2112,-0.2114,-0.2099,-0.2113,-0.2105,-0.2103,-0.2099,-0.2101,-0.194,-0.1919,-0.2075,-0.2117,-0.2116,-0.2116,-0.2115,-0.2114,0,-0.1613,-0.1665,-0.169,-0.1706,-0.1768,-0.1798,-0.1841,-0.1923,-0.1963,-0.2061,-0.2122,-0.2152,-0.2182,-0.2194,-0.2167,-0.2167,-0.2194,-0.2196,-0.2038,-0.2027,-0.2172,-0.2166,-0.2221,-0.2221,-0.2221,-0.222,-0.222,0,-0.159,-0.1614,-0.1678,-0.1687,-0.1716,-0.1778,-0.1837,-0.1887,-0.1991,-0.2043,-0.2127,-0.2167,-0.2215,-0.2234,-0.2209,-0.2122,-0.2231,-0.203,-0.2022,-0.2172,-0.2166,-0.2176,-0.217,-0.2222,-0.2222,-0.2221,-0.2221,0,-0.1537,-0.1588,-0.1607,-0.1671,-0.1698,-0.1715,-0.182,-0.1867,-0.1977,-0.2058,-0.2096,-0.22,-0.2206,-0.2222,-0.2235,-0.215,-0.2103,-0.2052,-0.2201,-0.2204,-0.1912,-0.1906,-0.1889,-0.1883,-0.1879,-0.1874,-0.1871,0,-0.1502,-0.1516,-0.1576,-0.1586,-0.1616,-0.1671,-0.1719,-0.1839,-0.1897,-0.2047,-0.2073,-0.2143,-0.2181,-0.2054,-0.2086,-0.2027,-0.1993,-0.1969,-0.193,-0.1881,-0.1876,-0.1878,-0.188,-0.1863,-0.1862,-0.186,-0.1859,0,-0.1424,-0.1465,-0.1474,-0.1495,-0.1538,-0.1584,-0.1664,-0.1699,-0.184,-0.1968,-0.1982,-0.1974,-0.1975,-0.1946,-0.1903,-0.1863,-0.1982,-0.1917,-0.1927,-0.189,-0.1849,-0.1849,-0.1856,-0.1842,-0.1844,-0.1846,-0.1847,0,-0.1361,-0.1339,-0.1365,-0.1365,-0.1427,-0.1461,-0.1524,-0.1583,-0.165,-0.1823,-0.1819,-0.1879,-0.1961,-0.1862,-0.1828,-0.1759,-0.1729,-0.1668,-0.1691,-0.1711,-0.1622,-0.1541,-0.1422,0,0,0,0,0,-0.1274,-0.1235,-0.1233,-0.1227,-0.1298,-0.1332,-0.1468,-0.1551,-0.1704,-0.166,-0.1731,-0.1717,-0.1663,-0.1697,-0.1582,-0.174,-0.1736,-0.16,-0.168,-0.1745,-0.1765,-0.1672,0,0,0,0,0,0,-0.1209,-0.1201,-0.1177,-0.1125,-0.1108,-0.1177,-0.1259,-0.1373,-0.136,-0.1511,-0.1484,-0.1584,-0.1552,-0.1676,-0.1532,-0.1538,-0.1547,-0.1639,-0.1633,-0.1734,-0.1752,-0.1768,-0.1679,0,0,0,0,0]},{"header":{"parameterUnit":"m.s-1","parameterCategory":2,"la1":30.2991,"la2":30.254,"lo1":-89.0895,"lo2":-89.0444,"dy":0.0017,"dx":0.0017,"nx":28,"ny":28,"refTime":"2025-01-26T03:00:00:Z","depth":"4","parameterNumber":3,"parameterNumberName":"V-component_of_CURRENTS"},"data":[0,0,0,0,0,0,0,0,0,0,0,0,0,0,0,0,0,0,0,0,0,0,0,0,0,0,0,0,0,0,0,0,0,0,0,0,0,0,0,0,0,0,0,0,0,0,0,0,0,0,0,0,0,0,0,0,0,0,-0.066,-0.066,0,-0.0691,-0.0691,-0.0691,-0.0685,-0.0685,-0.0684,-0.0684,-0.0654,-0.0654,-0.0653,0,0,0,0,0,0,0,0,0,0,0,0,0,-0.0576,-0.0577,-0.066,-0.066,-0.0661,-0.0691,-0.0691,-0.0691,-0.0685,-0.0685,-0.0684,-0.0684,-0.0654,-0.0654,-0.0653,0,0,0,0,0,0,0,0,0,0,0,0,0,-0.0609,-0.0578,-0.0659,-0.0662,-0.0663,-0.0691,-0.0691,-0.0691,-0.0685,-0.0685,-0.0684,-0.0683,-0.0654,-0.0654,-0.0653,-0.0663,0,0,-0.0651,-0.0651,0,0,0,0,0,0,0,0,-0.0607,-0.0612,-0.0661,-0.0662,-0.0663,-0.0685,-0.0651,-0.0679,-0.0685,-0.0675,-0.0684,-0.0683,-0.066,-0.0659,-0.0665,-0.0662,-0.066,-0.0651,-0.0651,-0.0651,-0.0651,0,0,0,0,0,0,0,-0.0605,-0.061,-0.0671,-0.0662,-0.0663,-0.0655,-0.0659,-0.0656,-0.0669,-0.0676,-0.0676,-0.0682,-0.066,-0.0666,-0.0664,-0.066,-0.0651,-0.0651,-0.0651,-0.065,-0.0681,-0.0682,0,0,0,0,0,0,-0.0606,-0.0608,-0.067,-0.0672,-0.0634,-0.0658,-0.0662,-0.0677,-0.067,-0.0669,-0.0683,-0.0682,-0.0667,-0.0665,-0.0663,-0.069,-0.0651,-0.065,-0.065,-0.068,-0.0681,-0.0683,0,0,0,0,0,0,-0.0604,-0.0611,-0.0668,-0.0641,-0.0648,-0.066,-0.0677,-0.0678,-0.0692,-0.0676,-0.0674,-0.0696,-0.0667,-0.0664,-0.0675,-0.0688,-0.065,-0.065,-0.0679,-0.068,-0.0682,-0.0733,0,0,0,0,0,0,-0.0601,-0.0611,-0.0629,-0.0642,-0.065,-0.0696,-0.0678,-0.0679,-0.0697,-0.0696,-0.0687,-0.0683,-0.0666,-0.0676,-0.0674,-0.0686,-0.0649,-0.0677,-0.0679,-0.0682,-0.0729,-0.0736,-0.0741,0,0,0,0,0,-0.0599,-0.062,-0.063,-0.0638,-0.0673,-0.0698,-0.0702,-0.0706,-0.0699,-0.0714,-0.0708,-0.0684,-0.0688,-0.0677,-0.0674,-0.0686,-0.0676,-0.0679,-0.0681,-0.0727,-0.0735,-0.0741,0,0,0,0,0,0,-0.0595,-0.0623,-0.0633,-0.0664,-0.0687,-0.0697,-0.0711,-0.0716,-0.0725,-0.0723,-0.0701,-0.0698,-0.0708,-0.0697,-0.0685,-0.0703,-0.0677,-0.068,-0.0713,-0.072,-0.0726,-0.0692,-0.0649,0,0,0,0,0,-0.0604,-0.0632,-0.0654,-0.0684,-0.0692,-0.0705,-0.0718,-0.0726,-0.0732,-0.0736,-0.0729,-0.0722,-0.0718,-0.0719,-0.0713,-0.0728,-0.0652,-0.0735,-0.0741,-0.0746,-0.0718,-0.0619,-0.0612,-0.0691,-0.0691,-0.0691,0,0,-0.0616,-0.0633,-0.0652,-0.0686,-0.0699,-0.0716,-0.0711,-0.0738,-0.0749,-0.0731,-0.0743,-0.0741,-0.0726,-0.0739,-0.0743,-0.0732,-0.0688,-0.0749,-0.0753,-0.0722,-0.0621,-0.0612,-0.0605,-0.0693,-0.0693,-0.0692,0,0,-0.064,-0.0663,-0.0687,-0.0703,-0.0731,-0.0738,-0.0748,-0.0767,-0.0773,-0.0794,-0.0778,-0.0781,-0.0787,-0.0773,-0.0767,-0.0802,-0.0719,-0.0814,-0.0818,-0.0724,-0.0715,-0.0706,-0.0607,-0.0589,-0.082,-0.082,-0.082,0,-0.065,-0.0682,-0.07,-0.0717,-0.0727,-0.0746,-0.0763,-0.0776,-0.0798,-0.0792,-0.0803,-0.079,-0.0793,-0.0779,-0.0803,-0.0812,-0.0737,-0.0793,-0.0727,-0.0716,-0.0706,-0.0607,-0.0586,-0.0823,-0.0823,-0.0822,-0.0822,0,-0.0683,-0.0708,-0.072,-0.0746,-0.0761,-0.0784,-0.0796,-0.0813,-0.0822,-0.082,-0.0816,-0.0821,-0.08,-0.0823,-0.0828,-0.0778,-0.0741,-0.074,-0.07,-0.0701,-0.0597,-0.0574,-0.0827,-0.0826,-0.0825,-0.0824,0,0,-0.0697,-0.0736,-0.074,-0.0752,-0.0776,-0.079,-0.0806,-0.0813,-0.0809,-0.0826,-0.0799,-0.0822,-0.0807,-0.0799,-0.0805,-0.0749,-0.0644,-0.0724,-0.0717,-0.0609,-0.0413,-0.0453,-0.0431,-0.0623,-0.0619,-0.0616,-0.0371,0,-0.0714,-0.0752,-0.0761,-0.0789,-0.0804,-0.0812,-0.082,-0.0828,-0.0828,-0.0808,-0.0793,-0.0776,-0.0802,-0.0798,-0.0743,-0.0671,-0.0585,-0.0709,-0.0441,-0.0433,-0.0454,-0.0407,-0.0605,-0.0353,-0.0348,-0.0344,-0.0341,0,-0.0734,-0.0755,-0.0789,-0.0803,-0.0808,-0.0825,-0.0825,-0.0834,-0.0807,-0.08,-0.0766,-0.074,-0.0681,-0.0698,-0.0523,-0.0597,-0.0495,-0.0433,-0.0422,-0.0416,-0.043,-0.0351,-0.0299,-0.0303,-0.0306,-0.0308,-0.0311,0,-0.0734,-0.0765,-0.0793,-0.0802,-0.0826,-0.0834,-0.0842,-0.0833,-0.083,-0.078,-0.0757,-0.0674,-0.0629,-0.0495,-0.0403,-0.0433,-0.0189,-0.0207,-0.013,-0.0131,-0.0144,-0.0156,-0.0028,-0.0028,-0.0029,-0.0029,-0.003,0,-0.0738,-0.0759,-0.08,-0.0815,-0.0839,-0.0842,-0.0852,-0.085,-0.0821,-0.08,-0.0747,-0.0703,-0.0573,-0.0445,-0.0342,-0.0174,-0.0123,-0.0094,-0.0061,-0.0177,-0.0195,-0.0128,-0.0143,-0.002,-0.0022,-0.0024,-0.0026,0,-0.0735,-0.0767,-0.08,-0.0832,-0.0847,-0.0863,-0.0878,-0.0878,-0.0847,-0.081,-0.0787,-0.0683,-0.0521,-0.0387,-0.0164,-0.0102,0.0061,0.0117,-0.0002,0.0016,0.0055,0.0034,0.0266,0.0267,0.0267,0.0268,0.0268,0,-0.0738,-0.0759,-0.0818,-0.0848,-0.0869,-0.0894,-0.0915,-0.0902,-0.0892,-0.0806,-0.0779,-0.0621,-0.0544,-0.0236,-0.0113,0.0129,0.0132,0.0236,0.0134,0.008,0.009,0.0068,0.0047,0.027,0.027,0.027,0.027,0,-0.0735,-0.0767,-0.0797,-0.0861,-0.0899,-0.0929,-0.0947,-0.0937,-0.0902,-0.0871,-0.074,-0.0597,-0.0412,-0.0224,-0.0043,0.0112,0.0171,0.0244,0.0244,0.0148,0.0088,0.0092,0.007,0.0273,0.0272,0.0272,0.0272,0,-0.0734,-0.076,-0.0813,-0.086,-0.0919,-0.0948,-0.0955,-0.092,-0.0896,-0.0798,-0.0752,-0.0566,-0.0454,-0.0228,-0.0068,0.008,0.0108,0.0141,0.0146,0.0145,-0.0006,-0.0108,0.0081,0,0,0,0,0,-0.0725,-0.0757,-0.0806,-0.0863,-0.0922,-0.0955,-0.097,-0.0964,-0.0927,-0.0833,-0.0788,-0.0619,-0.0369,-0.026,-0.011,-0.0075,0.0115,0.0101,0.015,0.0287,0.0284,0.0118,0,0,0,0,0,0,-0.0723,-0.0773,-0.0797,-0.0857,-0.09,-0.0955,-0.0971,-0.0947,-0.0883,-0.0824,-0.0684,-0.0601,-0.0357,-0.0453,-0.0112,-0.0068,-0.0021,0.0221,0.0224,0.0288,0.0286,0.0283,0.0112,0,0,0,0,0]}]]